Regional Weather Roundup
Issued by NWS State College, PA

Home | Current Version | Previous Version | Text Only | Print | Product List | Glossary On
Versions: 1 2 3 4 5 6 7 8 9 10 11 12 13 14 15 16 17 18 19 20 21 22 23 24 25 26 27 28 29 30 31 32 33 34 35 36 37 38 39 40 41 42 43 44 45 46 47 48 49 50
635
ASUS41 KCTP 012010
RWRCTP

REGIONAL WEATHER ROUNDUP
NATIONAL WEATHER SERVICE STATE COLLEGE PA
300 PM EST WED MAR 01 2017

Note: "fair" indicates few or no clouds below 12,000 feet with no
significant weather and/or obstructions to visibility.

* = STATION THAT DOES NOT REPORT PRECIPITATION /E.G. RAIN...SNOW...ETC/
    THUNDER OR FOG.

PAZ002>004-007>009-013>016-020>023-029>032-012100-
WESTERN PENNSYLVANIA

CITY           SKY/WX    TMP DP  RH WIND       PRES   REMARKS
ERIE           CLOUDY    61  48  62 SW23G36   29.37S
MEADVILLE      CLOUDY    57  46  66 SW15G31   29.42F
FRANKLIN*      CLOUDY    57  46  67 SW14G23   29.46S
NEW CASTLE     CLOUDY    60  48  64 SW18G32   29.46S
BEAVER COUNTY  PTSUNNY   59  48  67 SW18G35   29.48S
BUTLER*        PTSUNNY   61  48  63 SW20G29   29.49R
PITTSBURGH INT PTSUNNY   61  49  64 SW26G44   29.49F
PITTSBURGH     SUNNY     61  47  59 S20G32    29.49F
INDIANA*       SUNNY     61  50  67 SW18G29   29.51F
LATROBE        MOSUNNY   59  50  72 SW17G29   29.53F
WASHINGTON CO* MOSUNNY   61  48  63 SW23G35   29.54S
$$

PAZ004>006-010>012-017>019-024>028-033>037-041-042-045-046-049>053-012100-
CENTRAL PENNSYLVANIA

CITY           SKY/WX    TMP DP  RH WIND       PRES   REMARKS
BRADFORD       CLOUDY    55  48  77 SW18G36   29.42F
DUBOIS         CLOUDY    56  48  74 SW20G26   29.45F
CLEARFIELD       N/A    N/A N/A N/A MISG      29.46F
JOHNSTOWN      CLOUDY    54  47  77 SW21G30   29.52F
ALTOONA        CLOUDY    59  48  67 SW22G35   29.52F
STATE COLLEGE  SUNNY     57  50  77 SW9       29.48F
WILLIAMSPORT   CLOUDY    63  55  75 S10       29.45F
SELINSGROVE    CLOUDY    60  57  89 SW7       29.49F
FT INDIANTOWN  CLOUDY    62  62 100 SW13      29.50F
CAPITAL CITY   CLOUDY    65  55  70 S8        29.50F
HARRISBURG     CLOUDY    62  55  77 SW12      29.51F
YORK           CLOUDY    64  53  67 SW14G24   29.56F
$$

PAZ038>040-043-044-047-048-054-055-060>062-067>071-012100-
EASTERN PENNSYLVANIA

CITY           SKY/WX    TMP DP  RH WIND       PRES   REMARKS
SCRANTON       CLOUDY    63  56  78 SW13G21   29.44F
MOUNT POCONO   CLOUDY    56  55  97 SW17G24   29.52F
ALLENTOWN      RAIN      65  59  81 SW14      29.52F
QUAKERTOWN*    CLOUDY    66  61  82 SW9G21    29.55S
READING        PTSUNNY   63  63 100 W6        29.53S
LANCASTER      PTSUNNY   66  62  87 SW10      29.51F
COATESVILLE    PTCLDY    68  61  77 SW12G20   29.57S
POTTSTOWN      RAIN      67  59  75 S21G29    29.54F
BLUE BELL      CLOUDY    70  59  68 SW17G30   29.55R
DOYLESTOWN     CLOUDY    71  59  65 SW9G22    29.53S
WILLOW GROVE   NOT AVBL
NORTH PHILA    CLOUDY    74  60  61 SW22G38   29.56S
PHILADELPHIA   LGT RAIN  71  61  70 SW21      29.57R
$$




USA.gov is the U.S. government's official web portal to all federal, state and local government web resources and services.